• In Russia
  • List of Countries
  • For 7 days
  • Water Temperature
  • Satellite Maps
  • Weather Map
  • Weather Widgets
  • user-avatar
    Login

    Hourly Weather Dikhil

    Today, 21 March, Thursday

    Time Temperature Precipitation Wind Pressure Humidity
    00:00 +27°C° 0 mm 6 mps 716 mmHg 71%
    01:00 +27°C° 0 mm 6 mps 716 mmHg 72%
    02:00 +27°C° 0 mm 5 mps 715 mmHg 73%
    03:00 +26°C° 0 mm 5 mps 715 mmHg 75%
    04:00 +26°C° 0 mm 5 mps 715 mmHg 75%
    05:00 +26°C° 0 mm 5 mps 716 mmHg 76%
    06:00 +25°C° 0 mm 4 mps 716 mmHg 77%
    07:00 +27°C° 0 mm 5 mps 716 mmHg 69%
    08:00 +28°C° 0 mm 6 mps 717 mmHg 61%
    09:00 +29°C° 0 mm 6 mps 718 mmHg 53%
    10:00 +32°C° 0 mm 7 mps 718 mmHg 46%
    11:00 +34°C° 0 mm 8 mps 718 mmHg 40%
    12:00 +37°C° 0 mm 8 mps 717 mmHg 34%
    13:00 +37°C° 0 mm 8 mps 717 mmHg 33%
    14:00 +37°C° 0 mm 8 mps 716 mmHg 33%
    15:00 +38°C° 0 mm 8 mps 715 mmHg 33%
    16:00 +35°C° 0 mm 8 mps 715 mmHg 39%
    17:00 +34°C° 0 mm 8 mps 715 mmHg 45%
    18:00 +32°C° 0 mm 8 mps 715 mmHg 51%
    19:00 +31°C° 0 mm 8 mps 715 mmHg 57%
    20:00 +29°C° 0 mm 7 mps 715 mmHg 62%
    21:00 +28°C° 0 mm 6 mps 716 mmHg 68%
    22:00 +28°C° 0 mm 6 mps 716 mmHg 69%
    23:00 +28°C° 0 mm 6 mps 716 mmHg 71%

    Tomorrow, 22 March, Friday

    Time Temperature Precipitation Wind Pressure Humidity
    00:00 +27°C° 0 mm 5 mps 716 mmHg 73%
    01:00 +27°C° 0 mm 5 mps 716 mmHg 74%
    02:00 +27°C° 0 mm 5 mps 715 mmHg 75%
    03:00 +26°C° 0 mm 5 mps 715 mmHg 76%
    04:00 +26°C° 0 mm 5 mps 715 mmHg 77%
    05:00 +26°C° 0 mm 5 mps 716 mmHg 78%
    06:00 +26°C° 0 mm 4 mps 716 mmHg 78%
    07:00 +27°C° 0 mm 5 mps 717 mmHg 70%
    08:00 +28°C° 0 mm 5 mps 717 mmHg 62%
    09:00 +30°C° 0 mm 6 mps 718 mmHg 54%
    10:00 +32°C° 0 mm 6 mps 718 mmHg 47%
    11:00 +34°C° 0 mm 7 mps 718 mmHg 41%
    12:00 +36°C° 0 mm 7 mps 718 mmHg 34%
    13:00 +36°C° 0 mm 7 mps 717 mmHg 32%
    14:00 +38°C° 0 mm 7 mps 716 mmHg 31%
    15:00 +38°C° 0 mm 7 mps 715 mmHg 30%
    16:00 +36°C° 0 mm 7 mps 715 mmHg 35%
    17:00 +35°C° 0 mm 7 mps 715 mmHg 40%
    18:00 +33°C° 0 mm 8 mps 715 mmHg 45%
    19:00 +32°C° 0 mm 7 mps 715 mmHg 50%
    20:00 +30°C° 0 mm 6 mps 716 mmHg 56%
    21:00 +29°C° 0 mm 6 mps 716 mmHg 62%
    22:00 +29°C° 0 mm 5 mps 716 mmHg 64%
    23:00 +28°C° 0 mm 5 mps 716 mmHg 66%

    Day after tomorrow, 23 March, Saturday

    Time Temperature Precipitation Wind Pressure Humidity
    00:00 +28°C° 0 mm 5 mps 716 mmHg 68%
    01:00 +27°C° 0 mm 5 mps 716 mmHg 70%
    02:00 +27°C° 0 mm 4 mps 715 mmHg 73%
    03:00 +27°C° 0 mm 4 mps 715 mmHg 75%
    04:00 +26°C° 0 mm 4 mps 715 mmHg 76%
    05:00 +26°C° 0 mm 4 mps 716 mmHg 77%
    06:00 +26°C° 0 mm 4 mps 716 mmHg 78%
    07:00 +27°C° 0 mm 5 mps 717 mmHg 71%
    08:00 +28°C° 0 mm 5 mps 717 mmHg 63%
    09:00 +30°C° 0 mm 6 mps 718 mmHg 56%
    10:00 +32°C° 0 mm 6 mps 718 mmHg 49%
    11:00 +34°C° 0 mm 6 mps 717 mmHg 42%
    12:00 +36°C° 0 mm 6 mps 717 mmHg 36%
    13:00 +36°C° 0 mm 7 mps 716 mmHg 35%
    14:00 +38°C° 0 mm 7 mps 715 mmHg 34%
    15:00 +38°C° 0 mm 7 mps 715 mmHg 34%
    16:00 +36°C° 0 mm 7 mps 715 mmHg 40%
    17:00 +34°C° 0 mm 7 mps 715 mmHg 46%
    18:00 +33°C° 0 mm 8 mps 714 mmHg 52%
    19:00 +32°C° 0 mm 7 mps 715 mmHg 58%
    20:00 +30°C° 0 mm 7 mps 715 mmHg 63%
    21:00 +29°C° 0 mm 6 mps 716 mmHg 68%
    22:00 +28°C° 0 mm 6 mps 716 mmHg 70%
    23:00 +28°C° 0 mm 5 mps 716 mmHg 72%

    24 March, Sunday

    Time Temperature Precipitation Wind Pressure Humidity
    00:00 +28°C° 0 mm 5 mps 716 mmHg 73%
    01:00 +27°C° 0 mm 4 mps 715 mmHg 75%
    02:00 +27°C° 0 mm 4 mps 715 mmHg 76%
    03:00 +27°C° 0 mm 4 mps 714 mmHg 77%
    04:00 +26°C° 0 mm 4 mps 715 mmHg 78%
    05:00 +26°C° 0 mm 3 mps 715 mmHg 79%
    06:00 +26°C° 0 mm 3 mps 715 mmHg 80%
    07:00 +27°C° 0 mm 4 mps 716 mmHg 74%
    08:00 +28°C° 0 mm 5 mps 716 mmHg 68%
    09:00 +29°C° 0 mm 5 mps 717 mmHg 62%
    10:00 +32°C° 0 mm 5 mps 717 mmHg 56%
    11:00 +33°C° 0 mm 5 mps 716 mmHg 49%
    12:00 +35°C° 0 mm 5 mps 716 mmHg 43%
    13:00 +36°C° 0 mm 5 mps 715 mmHg 40%
    14:00 +37°C° 0 mm 5 mps 714 mmHg 38%
    15:00 +39°C° 0 mm 5 mps 713 mmHg 35%
    16:00 +36°C° 0 mm 6 mps 713 mmHg 41%
    17:00 +35°C° 0 mm 7 mps 713 mmHg 47%
    18:00 +34°C° 0 mm 8 mps 713 mmHg 53%
    19:00 +32°C° 0 mm 7 mps 713 mmHg 58%
    20:00 +30°C° 0 mm 6 mps 714 mmHg 63%
    21:00 +29°C° 0 mm 5 mps 714 mmHg 68%
    22:00 +29°C° 0 mm 5 mps 714 mmHg 69%
    23:00 +28°C° 0 mm 5 mps 714 mmHg 71%

    25 March, Monday

    Time Temperature Precipitation Wind Pressure Humidity
    00:00 +28°C° 0 mm 5 mps 714 mmHg 72%
    01:00 +28°C° 0 mm 4 mps 713 mmHg 74%
    02:00 +27°C° 0 mm 4 mps 713 mmHg 75%
    03:00 +27°C° 0 mm 4 mps 712 mmHg 77%
    04:00 +27°C° 0 mm 4 mps 713 mmHg 78%
    05:00 +26°C° 0 mm 4 mps 713 mmHg 78%
    06:00 +26°C° 0 mm 4 mps 714 mmHg 79%
    07:00 +28°C° 0 mm 5 mps 714 mmHg 71%
    08:00 +29°C° 0 mm 5 mps 715 mmHg 64%
    09:00 +32°C° 0 mm 6 mps 716 mmHg 56%
    10:00 +33°C° 0 mm 6 mps 715 mmHg 50%
    11:00 +35°C° 0 mm 6 mps 715 mmHg 44%
    12:00 +38°C° 0 mm 6 mps 715 mmHg 38%
    13:00 +38°C° 0 mm 7 mps 714 mmHg 38%
    14:00 +39°C° 0 mm 7 mps 713 mmHg 38%
    15:00 +39°C° 0 mm 8 mps 713 mmHg 38%
    16:00 +37°C° 0 mm 8 mps 713 mmHg 44%
    17:00 +35°C° 0 mm 8 mps 713 mmHg 50%
    18:00 +33°C° 0 mm 8 mps 713 mmHg 56%
    19:00 +32°C° 0 mm 8 mps 713 mmHg 60%
    20:00 +30°C° 0 mm 7 mps 714 mmHg 64%
    21:00 +29°C° 0 mm 7 mps 714 mmHg 69%
    22:00 +29°C° 0 mm 7 mps 714 mmHg 70%
    23:00 +29°C° 0 mm 6 mps 714 mmHg 72%

    26 March, Tuesday

    Time Temperature Precipitation Wind Pressure Humidity
    00:00 +28°C° 0 mm 6 mps 714 mmHg 74%
    01:00 +28°C° 0 mm 6 mps 714 mmHg 74%
    02:00 +28°C° 0 mm 6 mps 714 mmHg 75%
    03:00 +27°C° 0 mm 6 mps 713 mmHg 76%
    04:00 +27°C° 0 mm 6 mps 714 mmHg 77%
    05:00 +27°C° 0 mm 6 mps 714 mmHg 77%
    06:00 +27°C° 0 mm 6 mps 715 mmHg 78%
    07:00 +28°C° 0 mm 6 mps 716 mmHg 72%
    08:00 +29°C° 0 mm 7 mps 716 mmHg 66%
    09:00 +31°C° 0 mm 8 mps 717 mmHg 60%
    10:00 +33°C° 0 mm 7 mps 717 mmHg 54%
    11:00 +35°C° 0 mm 7 mps 717 mmHg 48%
    12:00 +36°C° 0 mm 6 mps 716 mmHg 43%
    13:00 +38°C° 0 mm 6 mps 716 mmHg 42%
    14:00 +38°C° 0 mm 7 mps 715 mmHg 41%
    15:00 +39°C° 0 mm 7 mps 714 mmHg 41%
    16:00 +36°C° 0 mm 7 mps 715 mmHg 46%
    17:00 +35°C° 0 mm 7 mps 715 mmHg 51%
    18:00 +34°C° 0 mm 7 mps 715 mmHg 55%
    19:00 +33°C° 0 mm 7 mps 716 mmHg 59%
    20:00 +32°C° 0 mm 6 mps 716 mmHg 63%
    21:00 +30°C° 0 mm 5 mps 716 mmHg 67%
    22:00 +30°C° 0 mm 5 mps 717 mmHg 68%
    23:00 +30°C° 0 mm 5 mps 717 mmHg 69%
    Show more